User: anonymous   Login
Location: Unspecified
(0.0000°N, 0.0000°E)
Time: 19:21:45
(UTC+00:00)
Language:

LES 2 - Orbit

View from above orbital plane
View from above orbital plane
View from above satellite
View from above satellite

Ground track
Ground track

The orbit data is extracted from the following two-line orbital elements,

1 01360U 65034B   18169.22640883 -.00000023  00000-0  17242-1 0  9999
2 01360  32.1274 262.3708 3967482   9.6518 356.1835  4.64817930902168
Epoch (UTC): 18 June 2018 05:26:01
Eccentricity: 0.3967482
inclination: 32.1274°
perigee height: 2771 km
apogee height: 14805 km
right ascension of ascending node: 262.3708°
argument of perigee: 9.6518°
revolutions per day: 4.64817930
mean anomaly at epoch: 356.1835°
orbit number at epoch: 90216

The dashed part of the orbit path shows where the satellite is in the earth's shadow,  

DLR